Home   Weather   33°54'N, 118°02'W   Past weeks
Flag for USA

Past Weather in 33°54'N, 118°02'W, USA — Yesterday and Last 2 Weeks

Now
56 °F

Fog.


Feels Like: 56 °F
Forecast: 70 / 52 °F
Wind: No wind

Location: Los Angeles / USC Campus Downtown

Current Time: Mar 19, 2019 at 8:18:07 am

Latest Report: Mar 19, 2019 at 7:47 am


Visibility: 2 mi

Pressure: 29.96 "Hg

Humidity: 90%

Dew Point: 53 °F

Location of 33°54'N, 118°02'WLocation

Past Weather in 33°54'N, 118°02'W — Graph

°F

33°54'N, 118°02'W Temperature Yesterday

Maximum temperature yesterday: 78 °F (at 11:47 am)
Minimum temperature yesterday: 58 °F (at 4:47 am)
Average temperature yesterday: 67 °F

High & Low Weather Summary for the Past Weeks

 TemperatureHumidityPressure
High84 °F (Mar 17, 12:47 pm)97% (Mar 6, 8:03 pm)30.20 "Hg (Mar 6, 8:03 pm)
Low49 °F (Mar 8, 4:47 am)12% (Mar 15, 12:47 pm)29.71 "Hg (Mar 12, 4:47 pm)
Average59 °F60%29.98 "Hg
* Reported Mar 4 6:47 am — Mar 19 7:10 am, 33°54'N, 118°02'W. Weather by CustomWeather, © 2019

Note: Actual official high and low records may vary slightly from our data, if they occured in-between our weather recording intervals... More about our weather records

Advertising

33°54'N, 118°02'W Weather History for the Previous 24 Hours

Scroll right to see more
 ConditionsComfort  
Time TempWeatherWind HumidityBarometerVisibility
7:10 am
Tue, Mar 19
55 °FFog.No wind90%29.95 "Hg2 mi
5:47 am55 °FFog.No wind87%29.92 "Hg5 mi
4:47 am55 °FFog.No wind90%29.93 "Hg3 mi
2:47 am57 °FFog.No wind87%29.96 "Hg5 mi
1:47 am57 °FFog.No wind87%29.95 "Hg6 mi
12:47 am58 °FClear.No wind84%29.96 "Hg8 mi
11:47 pm
Mon, Mar 18
59 °FClear.No wind81%29.97 "Hg8 mi
10:47 pm60 °FClear.3 mph80%29.98 "Hg6 mi
9:47 pm61 °FClear.No wind81%29.98 "Hg7 mi
8:47 pm64 °FClear.No wind58%29.96 "Hg10 mi
7:47 pm67 °FClear.No wind51%29.94 "Hg10 mi
6:47 pm69 °FSunny.No wind45%29.92 "Hg10 mi
5:47 pm71 °FSunny.5 mph41%29.92 "Hg10 mi
4:47 pm73 °FSunny.5 mph37%29.91 "Hg10 mi
3:47 pm73 °FSunny.3 mph40%29.93 "Hg10 mi
2:47 pm75 °FSunny.N/A42%29.93 "Hg10 mi
1:47 pm76 °FSunny.3 mph42%29.94 "Hg10 mi
11:47 am78 °FSunny.No wind32%29.97 "Hg10 mi
10:47 am75 °FSunny.No wind37%29.98 "Hg10 mi
9:47 am70 °FSunny.3 mph39%29.98 "Hg10 mi
8:47 am65 °FSunny.No wind51%29.97 "Hg10 mi
Weather by CustomWeather, © 2019

See weather overview